TimePST,TemperatureF,Dew PointF,Humidity,Sea Level PressureIn,VisibilityMPH,Wind Direction,Wind SpeedMPH,Gust SpeedMPH,PrecipitationIn,Events,Conditions,WindDirDegrees,DateUTC
12:30 AM,42.8,35.6,76,30.09,10.0,Calm,Calm,-,N/A,,Overcast,0,2013-02-21 08:30:00
12:40 AM,42.8,35.6,76,30.09,10.0,WSW,4.6,-,N/A,,Overcast,250,2013-02-21 08:40:00
12:53 AM,42.1,36.0,79,30.10,10.0,Variable,4.6,-,N/A,,Overcast,0,2013-02-21 08:53:00
1:53 AM,42.1,36.0,79,30.11,10.0,SW,8.1,-,N/A,,Overcast,230,2013-02-21 09:53:00
2:53 AM,42.1,37.0,82,30.14,7.0,Variable,3.5,-,0.01,Rain,Light Rain,0,2013-02-21 10:53:00
3:09 AM,41.0,37.4,87,30.13,10.0,WSW,5.8,-,0.00,Rain,Light Rain,240,2013-02-21 11:09:00
3:48 AM,41.0,37.4,87,30.13,10.0,SW,4.6,-,0.01,Rain,Light Rain,230,2013-02-21 11:48:00
3:53 AM,42.1,37.0,82,30.14,10.0,WSW,4.6,-,0.01,Rain,Light Rain,250,2013-02-21 11:53:00
4:38 AM,42.8,37.4,81,30.14,10.0,Calm,Calm,-,0.00,Rain,Light Rain,0,2013-02-21 12:38:00
4:53 AM,42.1,37.0,82,30.14,10.0,Calm,Calm,-,0.00,,Overcast,0,2013-02-21 12:53:00
5:18 AM,41.0,37.4,87,30.15,10.0,West,4.6,-,N/A,,Overcast,260,2013-02-21 13:18:00
5:53 AM,41.0,37.0,86,30.16,10.0,West,4.6,-,N/A,,Overcast,260,2013-02-21 13:53:00
6:53 AM,41.0,36.0,82,30.17,10.0,WSW,6.9,-,N/A,,Mostly Cloudy,240,2013-02-21 14:53:00
7:53 AM,42.1,36.0,79,30.18,10.0,SW,8.1,-,N/A,,Overcast,230,2013-02-21 15:53:00
8:53 AM,42.1,37.0,82,30.19,10.0,SW,8.1,-,N/A,,Overcast,220,2013-02-21 16:53:00
9:53 AM,43.0,37.0,80,30.18,10.0,SSW,8.1,-,0.00,,Overcast,200,2013-02-21 17:53:00
10:53 AM,44.1,37.9,79,30.18,10.0,SW,8.1,-,0.00,Rain,Light Rain,220,2013-02-21 18:53:00
11:04 AM,44.6,37.4,76,30.18,10.0,SW,5.8,-,0.00,Rain,Light Rain,220,2013-02-21 19:04:00
11:53 AM,45.0,37.9,76,30.18,10.0,SW,10.4,20.7,0.00,Rain,Light Rain,230,2013-02-21 19:53:00
12:53 PM,44.1,39.0,82,30.17,10.0,SSW,11.5,-,0.02,Rain,Light Rain,210,2013-02-21 20:53:00
1:12 PM,44.6,37.4,76,30.16,10.0,SSW,12.7,17.3,0.00,,Overcast,210,2013-02-21 21:12:00
1:53 PM,44.1,37.9,79,30.15,10.0,SSW,10.4,21.9,0.00,,Overcast,200,2013-02-21 21:53:00
2:53 PM,45.0,37.9,76,30.14,10.0,SSW,9.2,16.1,N/A,,Overcast,200,2013-02-21 22:53:00
3:53 PM,46.0,37.9,73,30.14,10.0,SSW,11.5,-,N/A,,Overcast,210,2013-02-21 23:53:00
4:53 PM,46.0,37.0,71,30.14,10.0,SSW,10.4,-,N/A,,Overcast,210,2013-02-22 00:53:00
5:05 PM,46.4,37.4,71,30.14,10.0,SSW,9.2,-,N/A,,Overcast,210,2013-02-22 01:05:00
5:53 PM,45.0,37.9,76,30.14,10.0,SW,10.4,-,N/A,,Overcast,220,2013-02-22 01:53:00
6:51 PM,44.6,37.4,76,30.15,10.0,SW,12.7,23.0,N/A,,Overcast,220,2013-02-22 02:51:00
6:53 PM,45.0,37.9,76,30.15,10.0,SSW,15.0,21.9,N/A,,Overcast,210,2013-02-22 02:53:00
7:53 PM,45.0,37.9,76,30.14,10.0,SSW,16.1,23.0,N/A,,Overcast,210,2013-02-22 03:53:00
8:49 PM,44.6,37.4,76,30.14,10.0,SW,13.8,-,0.00,,Overcast,230,2013-02-22 04:49:00
8:53 PM,44.1,37.9,79,30.14,10.0,SW,11.5,-,0.00,,Overcast,220,2013-02-22 04:53:00
9:11 PM,44.6,37.4,76,30.15,10.0,SSW,13.8,-,N/A,,Overcast,210,2013-02-22 05:11:00
9:53 PM,45.0,37.9,76,30.17,10.0,SW,11.5,18.4,N/A,,Overcast,220,2013-02-22 05:53:00
11:53 PM,44.1,37.9,79,30.17,10.0,SW,9.2,-,N/A,,Overcast,220,2013-02-22 07:53:00